This is the latest recevied weather packets stored in our database for station/object JF2ZGN-13. If no packets are shown the sender has not sent any weather packets the latest 10 day(s).
| Time | Temp. | Humidity | Pressure | Rain* | Wind** | Luminosity | Snow |
|---|---|---|---|---|---|---|---|
| 1777917370 | 6.67° C | 82% | 903.1 hPa | 0 mm | - | - | - |
| 1777916770 | 7.22° C | 81% | 903 hPa | 0 mm | - | - | - |
| 1777916170 | 7.22° C | 81% | 902.9 hPa | 0 mm | - | - | - |
| 1777915570 | 7.22° C | 82% | 902.7 hPa | 0 mm | - | - | - |
| 1777914968 | 7.22° C | 81% | 902.5 hPa | 0 mm | - | - | - |
| 1777914368 | 7.22° C | 80% | 902.6 hPa | 0 mm | - | - | - |
| 1777913769 | 7.22° C | 77% | 902.6 hPa | 0 mm | - | - | - |
| 1777913167 | 7.22° C | 79% | 902.4 hPa | 0 mm | - | - | - |
| 1777912567 | 7.78° C | 78% | 902.2 hPa | 0 mm | - | - | - |
| 1777911966 | 7.78° C | 73% | 902.1 hPa | 0 mm | - | - | - |
| 1777911366 | 8.33° C | 64% | 901.8 hPa | 0 mm | - | - | - |
| 1777910765 | 8.33° C | 62% | 901.6 hPa | 0 mm | - | - | - |
| 1777910165 | 8.89° C | 60% | 901.7 hPa | 0 mm | - | - | - |
| 1777909564 | 8.89° C | 55% | 901.6 hPa | 0 mm | - | - | - |
| 1777908964 | 8.89° C | 55% | 901.5 hPa | 0 mm | - | - | - |
| 1777908364 | 9.44° C | 55% | 901.6 hPa | 0 mm | - | - | - |
| 1777907763 | 9.44° C | 55% | 901.5 hPa | 0 mm | - | - | - |
| 1777907162 | 8.89° C | 56% | 901.4 hPa | 0 mm | - | - | - |
| 1777906562 | 8.89° C | 51% | 901.3 hPa | 20.07 mm | - | - | - |
| 1777905361 | 8.89° C | 49% | 900.9 hPa | 20.07 mm | - | - | - |
| 1777904761 | 8.89° C | 45% | 900.5 hPa | 20.07 mm | - | - | - |
| 1777904160 | 9.44° C | 39% | 900.5 hPa | 20.07 mm | - | - | - |
| 1777903560 | 9.44° C | 37% | 900.5 hPa | 20.07 mm | - | - | - |
| 1777902959 | 9.44° C | 38% | 900.4 hPa | 20.07 mm | - | - | - |
| 1777902358 | 8.89° C | 37% | 900.2 hPa | 20.07 mm | - | - | - |
* Rain since midnight (hover to see other rain measurements)
** Current wind speed in m/s (hover to see current wind gust speed)